Flight Track Log - Related Links

Times and Time Zones

All times are in EDT time to prevent confusion due to time zone crossing. See the EJA102 flight status page for this flight to view local times or setup timezone preferences in your user account.

Time Position Orientation Groundspeed Altitude Reporting Facility
EDT Latitude Longitude Course Direction KTS MPH feet Rate Location/Type
Mon 03:03:00 PM 41.3208 -70.0369 298° West 221 254 2,700  Level Boston Center
Mon 03:04:03 PM 41.3542 -69.9583 61° Northeast 247 284 6,000 2,832 Climbing Boston Center
Mon 03:05:05 PM 41.2831 -69.9558 178° South 280 322 8,600 2,195 Climbing Boston Center
Mon 03:06:06 PM 41.2844 -70.0503 271° West 268 308 10,500 1,934 Climbing Boston Center
Mon 03:07:06 PM 41.3069 -70.1519 286° West 283 326 12,500 1,835 Climbing Boston Center
Mon 03:08:00 PM 41.4285 -70.7127 298° West  Level FlightAware Approximate
Mon 03:08:07 PM 41.3278 -70.2583 285° West 295 339 14,200  Level Boston Center
Mon 03:09:11 PM 41.3503 -70.3714 285° West 311 358 15,900 1,632 Climbing Boston Center
Mon 03:10:12 PM 41.3722 -70.4850 284° West 313 360 17,600 1,623 Climbing Boston Center
Mon 03:11:13 PM 41.3961 -70.5997 286° West 318 366 19,200 1,180 Climbing Boston Center
Mon 03:12:14 PM 41.4453 -70.7297 297° West 325 374 20,000 397 Climbing Boston Center
Mon 03:13:14 PM 41.4911 -70.8442 298° West 344 396 20,000  Level Boston Center
Mon 03:14:19 PM 41.5406 -70.9633 299° West 359 413 20,000  Level Boston Center
Mon 03:15:19 PM 41.5892 -71.0858 298° West 371 427 20,000  Level Boston Center
Mon 03:16:20 PM 41.6383 -71.2097 298° West 372 428 20,000  Level Boston Center
Mon 03:17:23 PM 41.6853 -71.3361 296° West 377 434 20,000  Level Boston Center
Mon 03:18:25 PM 41.7319 -71.4639 296° West 380 437 20,000  Level Boston Center
Mon 03:19:25 PM 41.7803 -71.6017 295° West 380 437 20,000  Level Boston Center
Mon 03:20:26 PM 41.8256 -71.7300 295° West 380 437 20,000  Level Boston Center
Mon 03:21:30 PM 41.8700 -71.8592 295° West 380 437 20,000 -194 Level Boston Center
Mon 03:22:30 PM 41.9142 -71.9864 295° West 380 437 19,600 -1,041 Descending Boston Center
Mon 03:23:31 PM 41.9631 -72.1261 295° West 367 422 17,900 -1,230 Descending Boston Center
Mon 03:24:32 PM 42.0075 -72.2572 295° West 363 418 17,100 -432 Descending Boston Center
Mon 03:25:36 PM 42.0486 -72.3778 295° West 357 411 17,000 -48 Descending Boston Center
Mon 03:26:37 PM 42.0933 -72.5089 295° West 359 413 17,000 -295 Level Boston Center
Mon 03:27:38 PM 42.1347 -72.6292 295° West 358 412 16,400 -492 Descending Boston Center
Mon 03:28:39 PM 42.1586 -72.7511 285° West 351 404 16,000 -197 Descending Boston Center
Mon 03:29:40 PM 42.1511 -72.8922 266° West 352 405 16,000 -672 Level Boston Center
Mon 03:30:44 PM 42.1428 -73.0203 265° West 349 402 14,600 -968 Descending Boston Center
Mon 03:31:44 PM 42.1339 -73.1553 265° West 340 391 14,000 -298 Descending Boston Center
Mon 03:32:45 PM 42.1256 -73.2794 265° West 335 386 14,000 -49 Level Boston Center
Mon 03:33:46 PM 42.1172 -73.3853 264° West 337 388 13,900 -48 Descending Boston Center
Mon 03:34:50 PM 42.1086 -73.5128 265° West 342 394 13,900  Level Boston Center
Mon 03:35:51 PM 42.0969 -73.6642 264° West 341 392 13,900 49 Level Boston Center
Mon 03:36:52 PM 42.0867 -73.8000 264° West 341 392 14,000  Climbing Boston Center
Mon 03:37:53 PM 42.0769 -73.9269 264° West 341 392 13,900 -194 Descending Boston Center
Mon 03:38:56 PM 42.0675 -74.0544 264° West 341 392 13,600 -683 Descending Boston Center
Mon 03:39:56 PM 42.0586 -74.1769 264° West 305 351 12,500 -992 Descending Boston Center
Mon 03:40:57 PM 42.0500 -74.2819 264° West 286 329 11,600 -968 Descending Boston Center
Mon 03:42:00 PM 41.9928 -74.3578 225° Southwest 307 353 10,500 -871 Descending Boston Center
Mon 03:43:01 PM 41.9142 -74.4164 209° Southwest 302 348 9,800 -677 Descending Boston Center
Mon 03:44:04 PM 41.8414 -74.4689 208° Southwest 301 346 9,100 -629 Descending Boston Center
Mon 03:45:05 PM 41.7697 -74.5194 208° Southwest 298 343 8,500 -590 Descending Boston Center
Mon 03:46:06 PM 41.6811 -74.5406 190° South 299 344 7,900 -787 Descending Boston Center
Mon 03:47:07 PM 41.6044 -74.5556 188° South 283 326 6,900 -871 Descending Boston Center
Mon 03:48:10 PM 41.5289 -74.5697 188° South 278 320 6,100 -387 Descending Boston Center
Mon 03:49:11 PM 41.4483 -74.5856 188° South 276 318 6,100 -50 Level Boston Center
Mon 03:50:11 PM 41.3736 -74.6042 191° South 275 316 6,000 -529 Descending Boston Center
Mon 03:51:27 PM 41.2833 -74.5667 163° South 272 313 4,900 -882 Descending New York TRACON
Mon 03:52:27 PM 41.2500 -74.4833 118° Southeast 268 308 4,000 -400 Descending New York TRACON
Mon 03:53:27 PM 41.2000 -74.4000 129° Southeast 274 315 4,100 -100 Climbing New York TRACON
Mon 03:54:27 PM 41.1667 -74.3333 124° Southeast 269 310 3,800 -500 Descending New York TRACON
Mon 03:55:27 PM 41.1167 -74.2500 129° Southeast 265 305 3,100 -400 Descending New York TRACON
Mon 03:56:27 PM 41.0833 -74.1667 118° Southeast 226 260 3,000 -400 Descending New York TRACON
Mon 03:57:27 PM 41.0667 -74.1167 114° Southeast 187 215 2,300 -450 Descending New York TRACON
Mon 03:58:27 PM 41.0167 -74.0667 143° Southeast 188 216 2,100 -100 Descending New York TRACON
Mon 03:59:27 PM 40.9667 -74.0500 166° South 181 208 2,100 -250 Level New York TRACON
Mon 04:00:27 PM 40.9333 -74.0500 180° South 126 145 1,600 -550 Descending New York TRACON
Mon 04:01:27 PM 40.9000 -74.0500 180° South 118 136 1,000 -600 Descending New York TRACON
Mon 04:02:27 PM 40.8667 -74.0500 180° South 114 131 400 -600 Descending New York TRACON
Mon 04:04:00 PM 40.8500 -74.0500 150° Southeast  Level FlightAware Approximate
Mon 04:11:00 PM 40.8501 -74.0608 150° Southeast  Level Estimated

Login

Don't have an account? Register now (free) for customized features, flight alerts, and more!